Location: Hall+in+Tirol
(47.2830°N, 11.5170°E)
Time: 04:57:46
(UTC+02:00)

Daily predictions for brighter satellites

Satellite Brightness Start Highest point End
(mag) Time Altitude Azimuth Time Altitude Azimuth Time Altitude Azimuth
Meteor 2-5 Rocket 3.7 00:04:28 32° S 00:07:18 83° E 00:13:05 10° NNE
SL-27 R/B 4.4 00:05:01 13° WSW 00:07:18 25° WNW 00:10:10 10° N
COSMOS 2487 2.4 00:07:02 61° SSW 00:07:37 88° WNW 00:11:15 10° NNE
S3M 4.3 00:02:17 10° N 00:08:26 54° ENE 00:11:17 30° SE
Cosmos 1378 4.2 00:14:21 32° E 00:14:30 32° E 00:17:54 10° NNE
Cosmos 2369 4.0 00:10:42 10° NNW 00:16:18 59° ENE 00:19:06 29° SE
Meteor 2-1 Rocket 4.3 00:11:49 10° N 00:17:46 82° E 00:20:13 37° SSE
Cosmos 1733 3.5 00:14:26 10° NNW 00:18:15 57° W 00:18:57 48° SW
Cosmos 1655 Rocket 4.0 00:20:39 34° S 00:23:34 82° E 00:29:51 10° N
SL-8 R/B 4.3 00:21:56 10° W 00:26:25 38° SSW 00:26:25 38° SSW
Meteor 1-16 Rocket 4.3 00:23:47 10° NNW 00:29:23 71° W 00:31:39 37° S
Cosmos 2344 4.3 00:26:51 28° SSE 00:29:31 35° ESE 00:37:06 10° NE
Cosmos 1867 4.3 00:28:58 34° SE 00:29:41 35° ESE 00:34:37 10° NE
CZ-4B R/B 1.7 00:29:19 58° ESE 00:29:44 64° ENE 00:33:26 10° N
Lacrosse 4 Rocket 4.3 00:28:04 10° WNW 00:30:30 15° NW 00:32:58 10° N
H-2A R/B 2.3 00:28:08 10° NNE 00:31:57 59° ESE 00:32:15 56° SE
CZ-4C R/B 2.2 00:30:04 39° S 00:31:58 62° ESE 00:37:58 10° NE
Cosmos 841 Rocket 4.1 00:27:47 10° NNW 00:32:55 50° ENE 00:35:19 29° ESE
Landsat 5 3.5 00:33:07 51° SE 00:33:52 64° ENE 00:37:54 10° N
Cosmos 1980 Rocket 4.0 00:30:14 10° N 00:34:57 26° NE 00:39:38 10° ESE
H-2A R/B 4.2 00:34:06 10° WSW 00:36:51 15° W 00:39:43 10° NW
Cosmos 2278 3.6 00:32:48 10° NNW 00:38:30 86° WSW 00:40:38 40° SSE
ATLAS 3B R/B 4.3 00:31:59 10° W 00:39:00 37° NNW 00:45:46 10° NE
Cosmos 1607 4.3 00:33:40 11° SW 00:39:40 63° NW 00:45:51 10° NNE
Cosmos 1766 Rocket 3.5 00:40:20 53° S 00:41:21 85° E 00:45:52 10° N
Cosmos 2026 Rocket 4.0 00:38:50 33° SSW 00:41:42 73° W 00:47:47 10° N
CZ-4C R/B 3.2 00:42:37 52° W 00:42:37 52° W 00:45:35 10° NNW
Cosmos 2221 3.1 00:38:42 10° NNW 00:42:49 45° W 00:43:46 38° SW
Cosmos 1076 Rocket 3.4 00:42:26 56° SSW 00:43:18 83° WNW 00:47:33 10° N
Cosmos 1500 Rocket 4.5 00:42:59 31° ESE 00:43:37 33° E 00:47:30 10° NNE
COSMOS 2406 4.5 00:40:11 10° WSW 00:45:29 38° NW 00:50:52 10° NNE
Cosmos 1328 Rocket 3.7 00:41:40 10° N 00:46:02 64° ENE 00:47:00 49° SE
NOSS 3-2 (A) 3.4 00:43:23 29° SSW 00:46:48 83° SE 00:53:37 10° NE
Genesis I 3.5 00:43:37 10° NNW 00:47:36 63° NE 00:48:30 47° ESE
Cosmos 1689 Rocket 2.4 00:50:10 69° WNW 00:50:10 69° WNW 00:53:10 10° NNW
Cosmos 1340 4.4 00:49:54 21° WSW 00:51:14 26° WNW 00:54:30 10° NNW
Cosmos 1697 Rocket 3.4 00:49:33 10° NNW 00:55:06 50° ENE 00:58:25 23° ESE
Cosmos 468 Rocket 4.4 00:50:20 10° NNW 00:55:25 50° WSW 00:56:47 40° SSW
CZ-2C R/B 4.4 00:55:50 20° ESE 00:59:05 37° ENE 01:04:19 10° N
Cosmos 2082 Rocket 2.7 00:58:20 37° SE 00:59:43 43° ESE 01:05:04 10° NE
Cosmos 1515 Rocket 3.6 00:55:57 10° N 01:00:25 71° E 01:01:25 51° SE
Cosmos 1814 Rocket 4.4 00:58:42 10° NNW 01:03:47 49° WSW 01:05:09 39° SSW
Cosmos 1833 Rocket 3.4 01:03:53 33° SE 01:05:13 37° ESE 01:10:23 10° NE
Cosmos 405 Rocket 2.7 01:04:54 61° WSW 01:05:18 68° WNW 01:09:05 10° N
Cosmos 1908 3.8 01:05:40 10° N 01:09:24 47° ENE 01:09:58 43° ESE
SL-23 DEB 4.4 01:06:24 10° W 01:10:12 48° NNW 01:13:16 10° ENE
ISS -1.8 01:07:29 10° WNW 01:10:35 38° N 01:13:40 10° ENE
Cosmos 2228 Rocket 3.4 01:08:00 10° NNW 01:12:18 53° W 01:13:05 46° SW
Cosmos 836 Rocket 4.5 01:08:53 10° NNW 01:14:08 81° ENE 01:15:59 41° SSE
Cosmos 883 Rocket 4.5 01:07:55 10° N 01:14:18 84° E 01:17:01 37° SSE
Cosmos 1656 3.6 01:13:58 10° NNW 01:19:43 88° WSW 01:21:58 39° SSE
Lacrosse 5 rocket 2.9 01:15:55 10° NW 01:19:53 38° NNE 01:24:03 10° E
Cosmos 1486 Rocket 4.2 01:21:46 36° SW 01:23:49 65° WNW 01:29:02 10° NNE
Meteor 2-20 Rocket 4.4 01:23:02 39° S 01:25:30 77° E 01:31:41 10° NNE
Cosmos 1441 Rocket 3.6 01:27:01 49° ESE 01:27:25 52° E 01:31:16 10° NNE
Lacrosse 5 1.8 01:24:09 10° NW 01:29:15 90° S 01:31:53 29° SE
Cosmos 1437 Rocket 2.8 01:26:30 10° N 01:30:25 66° ENE 01:30:59 56° SE
CZ-2C R/B 2.7 01:26:47 10° NNE 01:32:21 71° ESE 01:34:15 41° S
Cosmos 540 Rocket 3.8 01:27:40 10° NNW 01:32:48 61° ENE 01:35:19 29° SE
Helios 1A Rocket 3.3 01:29:13 10° N 01:33:12 53° WNW 01:34:05 43° WSW
Cosmos 1763 Rocket 3.9 01:28:36 10° NNW 01:33:44 49° WSW 01:35:00 41° SW
Cosmos 2058 4.2 01:33:17 27° ESE 01:34:13 29° E 01:37:50 10° NNE
ALOS 2 4.0 01:35:45 24° WSW 01:36:21 25° W 01:39:57 10° NW
SL-16 R/B 3.9 01:34:09 10° NNW 01:39:11 31° NE 01:44:11 10° ESE
Cosmos 1726 3.9 01:36:35 10° NNE 01:39:41 24° ENE 01:41:02 20° ESE
CENTAUR R/B 3.0 01:42:15 35° SSE 01:44:23 47° ESE 01:50:56 10° NE
Cosmos 1707 Rocket 4.2 01:41:48 10° N 01:46:03 48° ENE 01:47:33 33° SE
Cosmos 2315 Rocket 4.0 01:43:15 10° NNW 01:49:35 76° W 01:52:18 36° S
Cosmos 2322 Rocket 3.5 01:45:11 10° NNW 01:50:26 38° NE 01:55:38 10° ESE
Cosmos 2151 3.0 01:49:36 54° SSE 01:50:28 74° E 01:54:44 10° NNE
Cosmos 1674 2.5 01:50:14 71° SSW 01:50:36 86° W 01:54:23 10° N
Cosmos 1151 Rocket 3.1 01:46:24 10° NNW 01:50:38 60° W 01:51:19 51° SW
NOSS 3-2 (C) 4.2 01:49:20 15° WSW 01:54:26 53° NW 02:01:12 10° NE
Cosmos 2266 Rocket 4.4 01:52:10 31° SW 01:55:10 57° WNW 02:01:30 10° N
Aureole 1 Rocket 3.4 01:52:19 10° NNW 01:56:55 75° WSW 01:59:11 37° S
Cosmos 405 2.8 01:53:21 10° N 01:56:59 89° E 01:57:17 74° SSE
Abrixas 3.4 02:01:49 41° E 02:01:49 41° E 02:03:59 10° ENE
CZ-4B R/B 4.2 02:03:05 11° W 02:03:05 11° W 02:03:55 10° WNW
Iridium 2 3.7 02:06:14 57° SSE 02:06:53 74° E 02:10:41 10° N
Cosmos 1867 4.4 02:09:35 20° WSW 02:13:10 47° NW 02:18:30 10° NNE
Meteor 2-11 Rocket 4.4 02:09:37 10° NNW 02:15:47 73° W 02:18:41 33° S
USA 32 4.2 02:13:24 10° NNW 02:18:35 61° W 02:20:31 37° SSW
Cosmos 1980 Rocket 2.2 02:13:49 10° NNW 02:19:24 64° WSW 02:21:52 33° S
Cosmos 2360 Rocket 4.2 02:14:59 10° N 02:19:45 27° NE 02:24:29 10° ESE
Sich 1 3.3 02:18:26 37° SSE 02:19:56 60° E 02:24:20 10° NNE
CZ-4C R/B 3.7 02:15:46 10° W 02:20:55 35° NNW 02:26:43 10° NNE
Cosmos 968 Rocket 4.1 02:19:38 29° SSE 02:21:42 45° ESE 02:26:37 10° NNE
SL-14 R/B 3.5 02:21:29 43° SSE 02:22:26 58° E 02:26:15 10° NNE
Cosmos 1437 2.7 02:24:50 67° SSE 02:25:11 78° E 02:28:32 10° NNE
Cosmos 332 Rocket 3.7 02:20:48 10° NNW 02:25:35 67° WSW 02:27:18 38° S
Cosmos 1328 4.1 02:25:22 43° SW 02:26:16 55° WNW 02:30:12 10° N
Meteor 1-11 4.3 02:23:55 32° S 02:26:44 78° E 02:32:34 10° NNE
ASTEX 1 3.5 02:24:57 10° N 02:29:53 67° W 02:31:50 36° SSW
Cosmos 1703 4.0 02:32:49 31° SSE 02:34:16 46° E 02:38:05 10° NNE
Cosmos 1271 Rocket 3.6 02:31:39 10° N 02:35:19 44° ENE 02:37:22 22° SE
Cosmos 1697 Rocket 3.7 02:33:59 10° NW 02:38:48 29° WSW 02:40:07 26° SW
CZ-2C R/B 3.9 02:36:54 29° SW 02:38:53 38° W 02:44:14 10° NNW
Cosmos 1862 Rocket 4.4 02:35:08 10° N 02:39:30 49° ENE 02:42:33 18° SE
COS B Rocket 3.9 02:37:28 10° NNW 02:38:47 24° NW 02:38:47 24° NW
Cosmos 2344 4.2 02:36:49 16° WSW 02:43:24 62° NW 02:52:49 10° NE
Cosmos 2082 Rocket 3.3 02:40:09 17° WSW 02:43:55 35° NW 02:49:08 10° NNE
BREEZE-M DEB (TANK) 3.5 02:43:57 24° SE 02:44:32 26° SE 02:49:33 10° ENE
SL-08 R/B 4.5 02:42:29 29° SSW 02:45:42 72° W 02:51:52 10° N
SL-08 R/B 3.7 02:42:24 17° SSE 02:46:03 64° ENE 02:50:57 10° N
ISS -3.5 02:43:59 10° WNW 02:47:15 84° SSW 02:50:31 10° ESE
ERS-2 2.7 02:44:19 10° NNE 02:47:58 50° ESE 02:49:21 31° SSE
Cosmos 1538 Rocket 4.0 02:42:52 10° NNW 02:48:02 64° WSW 02:50:49 27° S
Cosmos 1833 Rocket 3.6 02:45:34 19° WSW 02:49:07 40° NW 02:54:27 10° NNE
Meteor 1-4 Rocket 2.9 02:46:01 10° N 02:49:47 66° ENE 02:51:43 27° SSE
Cosmos 923 Rocket 4.3 02:46:27 10° NNW 02:51:44 69° ENE 02:56:56 10° SSE
ATLAS 5 CENTAUR R/B 3.4 02:51:08 17° SSE 02:53:33 25° ESE 02:57:46 10° ENE
BREEZE-M DEB (TANK) 4.3 02:38:27 10° WSW 02:54:04 80° S 02:58:28 10° E
Cosmos 1300 3.6 02:51:41 10° NNW 02:55:08 32° W 02:55:48 30° WSW
PSLV R/B 3.7 02:52:31 10° N 02:57:07 72° WNW 02:59:11 32° SSW
USA 215 3.7 02:52:03 10° ENE 02:58:18 46° SE 03:02:04 23° SSW
deb Kosmos-1763 4.3 02:57:28 36° S 02:58:53 70° ESE 03:02:45 10° NNE
Resurs 1-4 Rocket 4.4 02:55:33 10° NE 02:59:07 18° E 03:02:42 10° SE
Lacrosse 5 rocket 1.5 02:55:06 10° WNW 02:59:20 54° SW 03:03:41 10° SSE
USA 161 3.5 02:58:30 13° ESE 02:59:55 20° ENE 03:01:47 10° NNE
Cosmos 1680 Rocket 3.9 02:55:07 10° NNW 03:00:19 63° ENE 03:05:29 10° SSE
Cosmos 773 Rocket 3.9 02:58:01 10° NNW 03:03:10 81° WSW 03:07:14 17° SSE
ATLAS CENTAUR R/B 3.6 02:58:56 10° NNW 03:03:17 32° NE 03:07:21 10° ESE
Cosmos 1777 Rocket 4.2 03:00:52 25° S 03:03:54 66° ESE 03:09:10 10° NNE
IRS-P3 4.1 02:58:38 10° NNE 03:04:01 82° ESE 03:07:17 24° S
Cosmos 2181 Rocket 4.2 03:00:01 10° N 03:06:12 71° E 03:12:13 11° SSE
Cosmos 2058 4.3 03:09:31 21° WSW 03:11:09 26° WNW 03:14:42 10° NNW
Lacrosse 5 3.3 03:08:02 10° WNW 03:10:59 19° WSW 03:10:59 19° WSW
CBERS-1 4.2 03:06:53 10° NNE 03:12:01 69° ESE 03:15:29 21° S
CZ-2C R/B 4.5 03:08:01 10° NNW 03:12:04 21° WNW 03:15:46 11° WSW
Cosmos 1726 3.4 03:11:57 10° NW 03:15:00 24° W 03:15:41 23° WSW
Cosmos 371 Rocket 4.0 03:11:42 10° NW 03:16:04 34° WSW 03:17:57 25° SW
ARIANE 5 R/B 3.8 03:14:39 10° NNE 03:19:18 34° E 03:23:50 10° SSE
Cosmos 1633 Rocket 4.0 03:17:40 23° WSW 03:19:42 36° WNW 03:23:49 10° N
Cosmos 1455 2.1 03:18:33 10° NNW 03:22:20 66° W 03:24:21 25° S
SL-23 DEB 4.0 03:20:10 10° WNW 03:23:16 56° NNE 03:26:46 10° E
SL-16 R/B 2.4 03:18:04 10° NW 03:23:34 52° WSW 03:28:09 15° S
Cosmos 304 Rocket 3.8 03:21:22 10° NNW 03:26:14 90° ENE 03:31:05 10° SSE
Cosmos 2322 Rocket 2.7 03:29:17 10° NW 03:34:31 40° WSW 03:38:28 16° SSW
ADEOS 3.7 03:29:21 10° NNE 03:34:36 78° ESE 03:38:50 16° S
Cosmos 1703 Rocket 3.7 03:30:32 10° N 03:34:54 73° E 03:39:14 10° SSE
CENTAUR R/B 3.4 03:29:24 12° WSW 03:35:07 47° NW 03:42:02 10° NE
Abrixas 2.8 03:33:59 10° W 03:37:05 68° N 03:40:10 10° E
Cosmos 1626 2.3 03:37:38 23° SSW 03:39:46 60° W 03:43:30 10° N
Cosmos 1470 Rocket 4.2 03:38:10 21° SW 03:40:45 42° WNW 03:44:59 10° N
Cosmos 2219 Rocket 4.4 03:36:24 10° N 03:41:14 29° NE 03:46:02 10° ESE
GENESIS II 4.3 03:40:48 10° NW 03:44:55 65° SW 03:48:56 10° SSE
Cosmos 1933 Rocket 4.3 03:42:33 20° SW 03:45:11 39° WNW 03:49:21 10° N
AQUA 4.0 03:40:54 10° N 03:45:36 59° WNW 03:49:05 18° SSW
Cosmos 1346 3.0 03:47:48 20° S 03:49:45 89° SE 03:52:51 10° NNE
SL-16 R/B 2.7 03:43:48 10° SSE 03:50:04 80° ENE 03:56:22 10° NNW
CZ-2D R/B 2.9 03:47:27 10° NNE 03:52:31 47° E 03:57:37 10° S
UNK 4.0 03:48:24 10° SSE 03:52:57 70° ENE 03:57:31 10° N
Cosmos 2112 Rocket 4.1 03:50:18 10° NNW 03:55:21 54° WSW 04:00:24 10° S
Okean 1-7 3.2 03:50:59 10° N 03:55:24 75° E 03:59:46 10° SSE
Cosmos 1709 Rocket 4.3 03:51:16 16° SSW 03:56:18 55° WNW 04:02:26 10° N
UNKNOWN OBJECT B 4.2 03:56:03 10° NNE 03:59:34 34° E 04:03:07 10° SSE
Cosmos 1869 4.4 03:59:23 10° NNW 04:02:49 28° W 04:05:17 15° SW
H-2A ROCKET BODY4.004:06:32S04:06:32S03:53:58WSW
USA 229 DEB 4.4 03:57:32 10° S 04:04:06 49° ESE 04:10:47 10° NE
NPP 4.4 03:59:11 10° N 04:04:10 39° WNW 04:08:33 13° SW
Cosmos 2360 Rocket 2.2 03:58:37 10° NNW 04:04:10 62° WSW 04:09:43 10° S
USA 229 4.4 03:57:38 10° S 04:04:13 48° ESE 04:10:53 10° NE
Cosmos 389 Rocket 4.0 04:02:43 10° N 04:06:15 39° ENE 04:09:44 10° SE
BREEZE-M TANK 1.8 04:05:43 10° W 04:09:45 63° S 04:12:10 10° E
SME Rocket 3.8 04:10:43 10° SSE 04:16:42 75° ENE 04:20:58 10° NNW
Cosmos 2333 4.5 04:14:36 10° NNW 04:20:16 75° ENE 04:25:57 10° SSE
ERS-2 4.3 04:19:12 10° NNW 04:21:24 15° WNW 04:23:35 10° W
Okean O Rocket 2.9 04:18:04 10° NNE 04:22:15 40° E 04:26:24 10° SSE
ISS -1.7 04:21:14 10° W 04:23:17 16° SW 04:25:19 10° S
Cosmos 2322 4.1 04:18:14 10° NW 04:23:40 45° WSW 04:29:04 10° S
Meteor 1-26 Rocket 4.2 04:19:39 10° NNW 04:25:09 64° W 04:30:35 10° S
Cosmos 2219 3.5 04:19:57 10° SSW 04:25:38 72° ESE 04:31:24 10° NNE
EO 1 Del DPAF 3.9 04:23:07 10° SSW 04:26:45 37° W 04:30:25 10° NNW
USA 161 3.4 04:29:49 10° WSW 04:30:26 11° W 04:31:05 10° WNW
Cosmos 2298 Rocket 4.1 04:29:42 10° SSW 04:35:02 79° WNW 04:40:25 10° NNE
MOS 1-B 4.4 04:30:49 10° NNE 04:36:38 81° WNW 04:42:26 10° SSW
ATLAS 5 CENTAUR R/B 2.3 04:32:55 10° SW 04:37:49 58° NW 04:43:10 10° NE
Resurs 1-4 Rocket 2.2 04:34:12 10° N 04:39:30 70° WNW 04:44:47 10° SSW
USA 215 3.5 04:35:02 10° NE 04:41:31 68° NNW 04:48:00 10° WSW
ATLAS CENTAUR R/B 1.9 04:38:04 10° NW 04:42:35 46° WSW 04:46:45 10° SSE
Cosmos 2333 Rocket 3.0 04:39:42 10° NNW 04:45:22 60° ENE 04:51:02 10° SE
Cosmos 1869 Rocket 4.4 04:42:18 10° SW 04:46:21 35° WNW 04:50:27 10° N
